User: anonymous   Login
Location: Lawrence
(38.9720°N, 95.2350°W)
Time: 12:27:01
(UTC-06:00)
Language:

ALOS - Orbit

View from above orbital plane
View from above orbital plane
View from above satellite
View from above satellite

Ground track
Ground track

The orbit data is extracted from the following two-line orbital elements,

1 28931U 06002A   16037.20881206  .00000359  00000-0  80245-4 0  9995
2 28931  97.9034  81.8733 0002456  88.2802 271.8681 14.62110700534830
Epoch (UTC): 06 February 2016 05:00:41
Eccentricity: 0.0002456
inclination: 97.9034°
perigee height: 684 km
apogee height: 688 km
right ascension of ascending node: 81.8733°
argument of perigee: 88.2802°
revolutions per day: 14.62110700
mean anomaly at epoch: 271.8681°
orbit number at epoch: 53483

The dashed part of the orbit path shows where the satellite is in the earth's shadow,  

DLR